EWG6TL EDDL-EGCC

Flight info

Callsign EWG6TL
Flight time N/A
Altitude 36000
Route SONEB8T/23L SONEB P64 TENLI L602 SPY DCT RAVLO Y70 OTBED
Aircraft A21N/M-SDE2E3FGHIRWXY/LB1

Departure

Time 2026-05-04 17:05
Airport Düsseldorf Airport (EDDL)

Arrival

Time N/A
Airport Manchester Airport (EGCC)
Time Latitude Longitude Altitude Speed Heading
2026-05-04 16:39 51.28154 6.76744 134 ft 0 kts 276°
2026-05-04 16:55 51.28154 6.76747 134 ft 2 kts 276°
2026-05-04 16:56 51.28138 6.76816 135 ft 4 kts 325°
2026-05-04 16:56 51.28087 6.76803 135 ft 1 kts 17°
2026-05-04 16:59 51.28089 6.76804 135 ft 1 kts 17°
2026-05-04 17:00 51.28225 6.76854 134 ft 10 kts
2026-05-04 17:00 51.28372 6.76722 129 ft 10 kts 321°
2026-05-04 17:01 51.28500 6.76804 132 ft 15 kts 54°
2026-05-04 17:01 51.28646 6.77110 135 ft 19 kts 52°
2026-05-04 17:02 51.28817 6.77464 135 ft 21 kts 52°
2026-05-04 17:02 51.29008 6.77859 135 ft 24 kts 52°
2026-05-04 17:03 51.29088 6.78029 136 ft 10 kts 54°
2026-05-04 17:03 51.29136 6.78133 139 ft 13 kts 54°
2026-05-04 17:03 51.29264 6.78410 150 ft 18 kts 53°
2026-05-04 17:04 51.29413 6.78574 158 ft 10 kts 355°
2026-05-04 17:04 51.29512 6.78460 155 ft 14 kts 238°
2026-05-04 17:05 51.28987 6.77384 134 ft 121 kts 237°
2026-05-04 17:05 51.27744 6.74711 840 ft 152 kts 231°
2026-05-04 17:06 51.26571 6.71796 1727 ft 175 kts 260°
2026-05-04 17:06 51.26959 6.69939 2349 ft 190 kts 313°
2026-05-04 17:07 51.29660 6.68878 3706 ft 218 kts 358°
2026-05-04 17:07 51.30683 6.68890 4185 ft 227 kts
2026-05-04 17:07 51.32899 6.69040 4924 ft 257 kts
2026-05-04 17:07 51.34750 6.69208 5567 ft 274 kts
2026-05-04 17:08 51.36682 6.69396 6455 ft 281 kts
2026-05-04 17:08 51.40639 6.69613 8376 ft 289 kts 360°
2026-05-04 17:08 51.42661 6.69359 9318 ft 294 kts 344°
2026-05-04 17:09 51.44498 6.67976 10287 ft 297 kts 327°
2026-05-04 17:09 51.46255 6.65998 10665 ft 320 kts 323°
2026-05-04 17:09 51.48121 6.63809 10985 ft 343 kts 324°
2026-05-04 17:10 51.52152 6.59216 12114 ft 365 kts 325°
2026-05-04 17:10 51.58506 6.52067 14299 ft 378 kts 325°
2026-05-04 17:11 51.60675 6.49628 14937 ft 383 kts 324°
2026-05-04 17:11 51.62868 6.47151 15573 ft 387 kts 324°
2026-05-04 17:11 51.67312 6.42133 16898 ft 393 kts 324°
2026-05-04 17:12 51.69569 6.39584 17519 ft 397 kts 324°
2026-05-04 17:12 51.74142 6.34411 18627 ft 406 kts 324°
2026-05-04 17:13 51.81138 6.26487 20247 ft 412 kts 324°
2026-05-04 17:14 51.88237 6.18409 21533 ft 423 kts 323°
2026-05-04 17:14 51.90653 6.15648 21962 ft 425 kts 323°
2026-05-04 17:14 51.95526 6.10075 22693 ft 431 kts 323°
2026-05-04 17:15 51.97984 6.07254 22999 ft 434 kts 323°
2026-05-04 17:15 52.02911 6.01586 23535 ft 439 kts 323°
2026-05-04 17:16 52.07918 5.95822 23952 ft 442 kts 322°
2026-05-04 17:16 52.15483 5.87110 24535 ft 441 kts 322°
2026-05-04 17:17 52.17975 5.84219 24756 ft 439 kts 322°
2026-05-04 17:17 52.25446 5.75536 24884 ft 439 kts 322°
2026-05-04 17:18 52.27931 5.72634 24878 ft 439 kts 322°
2026-05-04 17:18 52.32907 5.66826 24794 ft 439 kts 322°
2026-05-04 17:19 52.37496 5.60475 24668 ft 431 kts 307°
2026-05-04 17:19 52.40316 5.52048 24560 ft 418 kts 287°
2026-05-04 17:20 52.42154 5.43099 24450 ft 410 kts 286°
2026-05-04 17:20 52.43958 5.34343 24341 ft 401 kts 287°
2026-05-04 17:20 52.44852 5.30040 24310 ft 396 kts 287°
2026-05-04 17:21 52.46600 5.21598 24278 ft 386 kts 287°
2026-05-04 17:21 52.48294 5.13406 24243 ft 377 kts 287°
2026-05-04 17:22 52.49130 5.09355 24234 ft 373 kts 286°
2026-05-04 17:22 52.49953 5.05342 24245 ft 368 kts 286°
2026-05-04 17:23 52.52362 4.93564 24263 ft 357 kts 285°
2026-05-04 17:23 52.53146 4.89720 24331 ft 351 kts 285°
2026-05-04 17:23 52.54702 4.82364 24833 ft 331 kts 287°
2026-05-04 17:24 52.55503 4.78892 24923 ft 327 kts 287°
2026-05-04 17:24 52.57881 4.68535 24957 ft 319 kts 287°
2026-05-04 17:25 52.58662 4.65121 24947 ft 317 kts 287°
2026-05-04 17:25 52.60201 4.58371 24908 ft 314 kts 287°
2026-05-04 17:26 52.61748 4.51539 24536 ft 323 kts 287°
2026-05-04 17:26 52.64123 4.41012 23870 ft 339 kts 288°
2026-05-04 17:27 52.65783 4.33633 23388 ft 348 kts 288°
2026-05-04 17:27 52.67482 4.26049 22843 ft 357 kts 288°
2026-05-04 17:28 52.69219 4.18277 22326 ft 365 kts 288°
2026-05-04 17:29 52.71840 4.06483 21980 ft 361 kts 288°
2026-05-04 17:29 52.74383 3.94979 22006 ft 351 kts 287°